GW4034 Weather Reports


Display with metric or nautical units.
time (UTC)temp
F
wind
direction
speed
MPH
gust
MPH
rain 1hr
in
rain 24hr
in
rain mn
in
humidity
%
barometer
mb
20260505170615 78 189 2.0 3.0 0.00 0.00 0.00 48 1014.0
20260505170111 77 153 2.0 2.0 0.00 0.00 0.00 51 1014.4
20260505165606 76 207 2.0 3.0 0.00 0.00 0.00 50 1014.4
20260505165102 77 205 3.0 4.0 0.00 0.00 0.00 51 1014.5
20260505164558 76 173 1.0 2.0 0.00 0.00 0.00 52 1014.6
20260505164056 76 148 3.0 4.0 0.00 0.00 0.00 52 1014.7
20260505163554 77 149 4.0 6.0 0.00 0.00 0.00 53 1014.6
20260505163051 76 211 0.0 1.0 0.00 0.00 0.00 57 1014.7
20260505162544 76 166 3.0 4.0 0.00 0.00 0.00 55 1014.7
20260505162041 76 241 3.0 8.0 0.00 0.00 0.00 53 1014.9
20260505161538 75 171 2.0 3.0 0.00 0.00 0.00 53 1014.7
20260505161035 75 157 1.0 1.0 0.00 0.00 0.00 55 1014.8
20260505160533 75 192 1.0 2.0 0.00 0.00 0.00 56 1014.7
20260505153009 74 168 2.0 2.0 0.00 0.00 0.00 55 1015.3
20260505152506 74 170 2.0 2.0 0.00 0.00 0.00 56 1015.2
20260505152002 75 204 1.0 1.0 0.00 0.00 0.00 55 1015.2
20260505151457 75 155 2.0 3.0 0.00 0.00 0.00 53 1015.3
20260505150954 74 185 4.0 4.0 0.00 0.00 0.00 54 1015.4
20260505150446 76 167 2.0 2.0 0.00 0.00 0.00 53 1015.4
20260505140415 72 173 2.0 2.0 0.00 0.00 0.00 58 1015.6
20260505124829 63 193 3.0 4.0 0.00 0.00 0.00 71 1015.4
20260505124326 64 162 0.0 0.0 0.00 0.00 0.00 71 1015.5
20260505123822 64 170 0.0 0.0 0.00 0.00 0.00 72 1015.5
20260505123319 64 166 0.0 0.0 0.00 0.00 0.00 73 1015.6
20260505122815 62 187 1.0 1.0 0.00 0.00 0.00 73 1015.7
20260505122313 63 176 2.0 3.0 0.00 0.00 0.00 72 1015.6
20260505121809 62 159 0.0 0.0 0.00 0.00 0.00 74 1015.8
20260505121306 61 177 1.0 1.0 0.00 0.00 0.00 76 1015.6
20260505120802 59 174 0.0 0.0 0.00 0.00 0.00 79 1015.5
20260505120258 59 202 1.0 1.0 0.00 0.00 0.00 80 1015.6
20260505115757 59 175 0.0 0.0 0.00 0.00 0.00 80 1015.5
20260505115255 59 148 2.0 2.0 0.00 0.00 0.00 79 1015.6
20260505114752 58 178 0.0 0.0 0.00 0.00 0.00 81 1015.7
20260505114248 58 150 0.0 1.0 0.00 0.00 0.00 81 1015.4
20260505113745 58 193 0.0 0.0 0.00 0.00 0.00 80 1015.5
20260505113241 58 193 0.0 0.0 0.00 0.00 0.00 80 1015.3
20260505112737 58 192 0.0 0.0 0.00 0.00 0.00 81 1015.6
20260505112235 58 174 0.0 1.0 0.00 0.00 0.00 82 1015.7
20260505111735 56 194 0.0 0.0 0.00 0.00 0.00 87 1015.7
20260505111231 55 162 0.0 0.0 0.00 0.00 0.00 89 1015.6
20260505110727 55 169 0.0 0.0 0.00 0.00 0.00 91 1015.7
20260505110225 53 181 0.0 0.0 0.00 0.00 0.00 92 1015.7
20260505102200 48 192 0.0 0.0 0.00 0.00 0.00 93 1015.4
20260505101659 48 192 0.0 0.0 0.00 0.00 0.00 93 1015.1
20260505101155 48 193 0.0 0.0 0.00 0.00 0.00 93 1015.0
20260505100651 48 181 0.0 0.0 0.00 0.00 0.00 93 1014.8
20260505100148 48 202 0.0 0.0 0.00 0.00 0.00 93 1015.1
20260505095644 48 203 0.0 0.0 0.00 0.00 0.00 93 1014.9
20260505095142 47 192 0.0 0.0 0.00 0.00 0.00 92 1014.7
20260505094637 47 192 0.0 0.0 0.00 0.00 0.00 92 1014.6
20260505094134 48 192 0.0 0.0 0.00 0.00 0.00 92 1014.7
20260505093630 47 192 0.0 0.0 0.00 0.00 0.00 92 1014.8
20260505093128 48 192 0.0 0.0 0.00 0.00 0.00 92 1014.7
20260505092625 48 192 0.0 0.0 0.00 0.00 0.00 92 1014.7
20260505092124 48 192 0.0 0.0 0.00 0.00 0.00 92 1014.7
20260505091620 47 192 0.0 0.0 0.00 0.00 0.00 92 1014.9
20260505091118 48 192 0.0 0.0 0.00 0.00 0.00 92 1014.8
20260505090615 48 192 0.0 0.0 0.00 0.00 0.00 92 1014.6
20260505090114 48 192 0.0 0.0 0.00 0.00 0.00 92 1015.0
20260505085610 48 192 0.0 0.0 0.00 0.00 0.00 91 1014.8
20260505085109 48 192 0.0 0.0 0.00 0.00 0.00 91 1014.9
20260505084606 48 192 0.0 0.0 0.00 0.00 0.00 91 1014.7
20260505084105 48 192 0.0 0.0 0.00 0.00 0.00 91 1014.8
20260505083602 48 219 0.0 0.0 0.00 0.00 0.00 91 1014.6
20260505083058 48 192 0.0 0.0 0.00 0.00 0.00 91 1014.7
20260505082554 49 192 0.0 0.0 0.00 0.00 0.00 91 1014.7
20260505082051 49 192 0.0 0.0 0.00 0.00 0.00 90 1014.7
20260505081547 49 192 0.0 0.0 0.00 0.00 0.00 90 1014.7
20260505081044 49 192 0.0 0.0 0.00 0.00 0.00 90 1014.9
20260505080540 49 192 0.0 0.0 0.00 0.00 0.00 90 1014.7
20260505080038 49 192 0.0 0.0 0.00 0.00 0.00 90 1014.9
20260505075533 49 192 0.0 0.0 0.00 0.00 0.00 89 1015.1
20260505075030 49 197 1.0 1.0 0.00 0.00 0.00 89 1014.7
20260505074527 50 195 0.0 0.0 0.00 0.00 0.00 89 1014.6
20260505074024 50 170 0.0 0.0 0.00 0.00 0.00 89 1014.7
20260505073522 49 192 0.0 0.0 0.00 0.00 0.00 88 1014.8
20260505073020 50 191 0.0 0.0 0.00 0.00 0.00 88 1014.6
20260505072515 50 192 0.0 0.0 0.00 0.00 0.00 88 1014.6
20260505072012 50 192 0.0 0.0 0.00 0.00 0.00 87 1014.5
20260505071507 50 192 0.0 0.0 0.00 0.00 0.00 87 1014.7
20260505071006 50 192 0.0 0.0 0.00 0.00 0.00 87 1014.6
20260505070503 51 191 0.0 0.0 0.00 0.00 0.00 86 1014.6
20260505065958 51 192 0.0 0.0 0.00 0.00 0.00 85 1014.8
20260505065455 51 192 0.0 0.0 0.00 0.00 0.00 85 1014.7
20260505064951 52 192 0.0 0.0 0.00 0.00 0.00 84 1014.8
20260505064448 52 192 0.0 0.0 0.00 0.00 0.00 84 1014.6
20260505063947 52 192 0.0 0.0 0.00 0.00 0.00 83 1014.6
20260505063443 53 192 0.0 0.0 0.00 0.00 0.00 82 1014.7
20260505062939 53 192 0.0 0.0 0.00 0.00 0.00 82 1014.9
20260505062437 54 191 0.0 0.0 0.00 0.00 0.00 81 1014.8
20260505061933 54 192 0.0 0.0 0.00 0.00 0.00 80 1014.8
20260505061432 54 192 0.0 0.0 0.00 0.00 0.00 80 1015.0
20260505060929 54 190 0.0 0.0 0.00 0.00 0.00 80 1014.9
20260505060426 54 193 0.0 0.0 0.00 0.00 0.00 80 1014.8
20260505055922 53 188 0.0 0.0 0.00 0.00 0.00 81 1014.9
20260505055418 52 180 0.0 0.0 0.00 0.00 0.00 82 1014.9
20260505054915 53 179 0.0 0.0 0.00 0.00 0.00 81 1014.9
20260505054412 53 179 0.0 0.0 0.00 0.00 0.00 81 1014.9
20260505053910 53 179 0.0 0.0 0.00 0.00 0.00 80 1014.9
20260505053407 53 180 0.0 0.0 0.00 0.00 0.00 79 1014.9
20260505052904 54 180 0.0 0.0 0.00 0.00 0.00 79 1015.0
20260505052401 54 180 0.0 0.0 0.00 0.00 0.00 78 1014.9
20260505051858 54 180 0.0 0.0 0.00 0.00 0.00 78 1015.0
20260505051355 55 188 0.0 0.0 0.00 0.00 0.00 77 1015.2
20260505050853 55 189 0.0 0.0 0.00 0.00 0.00 76 1015.1
20260505050351 54 188 0.0 0.0 0.00 0.00 0.00 77 1015.1
20260505041319 56 182 0.0 0.0 0.00 0.00 0.00 74 1015.6
20260505040816 56 175 0.0 0.0 0.00 0.00 0.00 74 1015.4
20260505040314 56 177 0.0 0.0 0.00 0.00 0.00 74 1015.5
20260505035810 57 180 0.0 0.0 0.00 0.00 0.00 72 1015.4
20260505035305 57 180 0.0 0.0 0.00 0.00 0.00 72 1015.4
20260505034803 57 172 0.0 0.0 0.00 0.00 0.00 72 1015.5
20260505034259 58 167 0.0 0.0 0.00 0.00 0.00 71 1015.4
20260505033756 58 189 0.0 0.0 0.00 0.00 0.00 71 1015.5
20260505033253 57 189 0.0 1.0 0.00 0.00 0.00 70 1015.4
20260505032751 57 183 1.0 2.0 0.00 0.00 0.00 71 1015.5
20260505032247 57 188 0.0 0.0 0.00 0.00 0.00 70 1015.5
20260505031744 58 180 0.0 0.0 0.00 0.00 0.00 70 1015.5
20260505031240 57 198 0.0 0.0 0.00 0.00 0.00 71 1015.5
20260505030738 58 174 0.0 0.0 0.00 0.00 0.00 70 1015.5
20260505030234 58 166 0.0 0.0 0.00 0.00 0.00 70 1015.6
20260505025730 58 178 0.0 0.0 0.00 0.00 0.00 70 1015.3
20260505025228 58 177 0.0 0.0 0.00 0.00 0.00 70 1015.5
20260505024726 58 175 0.0 0.0 0.00 0.00 0.00 70 1015.3
20260505024223 58 183 0.0 1.0 0.00 0.00 0.00 70 1015.4
20260505023720 58 174 0.0 0.0 0.00 0.00 0.00 70 1015.4
20260505023217 58 258 2.0 3.0 0.00 0.00 0.00 70 1015.6
20260505022715 58 171 0.0 1.0 0.00 0.00 0.00 71 1015.6
20260505022211 58 179 0.0 1.0 0.00 0.00 0.00 71 1015.6
20260505021708 57 205 1.0 1.0 0.00 0.00 0.00 72 1015.5
20260505021205 57 180 0.0 0.0 0.00 0.00 0.00 73 1015.6
20260505020701 57 192 0.0 0.0 0.00 0.00 0.00 73 1015.4
20260505020151 57 189 0.0 0.0 0.00 0.00 0.00 74 1015.6
20260505015649 57 169 0.0 0.0 0.00 0.00 0.00 74 1015.4
20260505015145 57 168 0.0 1.0 0.00 0.00 0.00 74 1015.7
20260505014642 57 184 0.0 0.0 0.00 0.00 0.00 74 1015.5
20260505014139 57 176 0.0 1.0 0.00 0.00 0.00 74 1015.5
20260505013637 57 200 0.0 1.0 0.00 0.00 0.00 74 1015.5
20260505013134 57 185 0.0 0.0 0.00 0.00 0.00 73 1015.3
20260505012632 58 185 0.0 0.0 0.00 0.00 0.00 73 1015.5
20260505012128 58 175 0.0 0.0 0.00 0.00 0.00 73 1015.4
20260505011624 58 183 0.0 0.0 0.00 0.00 0.00 72 1015.2
20260505011122 58 156 1.0 2.0 0.00 0.00 0.00 72 1015.2
20260505010616 58 178 0.0 0.0 0.00 0.00 0.00 72 1015.2
20260505010114 58 219 1.0 1.0 0.00 0.00 0.00 72 1015.0
20260505005609 58 171 2.0 2.0 0.00 0.00 0.00 72 1015.0
20260505005107 58 183 0.0 1.0 0.00 0.00 0.00 71 1014.8
20260505004604 58 183 3.0 3.0 0.00 0.00 0.00 71 1014.9
20260505004101 58 196 0.0 1.0 0.00 0.00 0.00 72 1014.7
20260505003558 58 179 0.0 0.0 0.00 0.00 0.00 71 1014.8
20260505003055 58 190 0.0 0.0 0.00 0.00 0.00 71 1014.7
20260505002555 58 180 0.0 0.0 0.00 0.00 0.00 71 1014.7
20260505002049 58 181 1.0 1.0 0.00 0.00 0.00 70 1014.5
20260505001546 58 183 1.0 1.0 0.00 0.00 0.00 70 1014.7
20260505001043 59 174 2.0 3.0 0.00 0.00 0.00 69 1014.5
20260505000540 59 173 0.0 0.0 0.00 0.00 0.00 69 1014.2
20260505000038 59 143 1.0 2.0 0.00 0.00 0.00 68 1014.3
20260504235534 59 160 0.0 0.0 0.00 0.00 0.00 67 1014.2
20260504235031 59 176 1.0 1.0 0.00 0.00 0.00 67 1014.0
20260504234528 60 172 0.0 0.0 0.00 0.00 0.00 67 1014.1
20260504234026 60 194 2.0 2.0 0.00 0.00 0.00 66 1014.0
20260504233521 60 234 2.0 3.0 0.00 0.00 0.00 65 1014.1
20260504233018 61 147 1.0 1.0 0.00 0.00 0.00 64 1013.6
20260504232515 61 117 2.0 3.0 0.00 0.00 0.00 63 1013.8
20260504232013 62 198 1.0 1.0 0.00 0.00 0.00 62 1013.8
20260504231509 62 199 0.0 1.0 0.00 0.00 0.00 62 1013.7
20260504231005 62 158 0.0 1.0 0.00 0.00 0.00 60 1013.4
20260504230501 63 171 0.0 1.0 0.00 0.00 0.00 60 1013.4
20260504230000 63 162 0.0 1.0 0.00 0.00 0.00 59 1013.6
20260504225456 64 167 0.0 1.0 0.00 0.00 0.00 60 1013.6
20260504224954 64 216 2.0 3.0 0.00 0.00 0.00 58 1013.4
20260504224450 64 192 0.0 0.0 0.00 0.00 0.00 57 1013.7
20260504223947 65 226 3.0 6.0 0.00 0.00 0.00 56 1013.6
20260504223444 65 188 4.0 4.0 0.00 0.00 0.00 55 1013.6
20260504222939 65 215 2.0 3.0 0.00 0.00 0.00 54 1013.6
20260504222437 66 162 2.0 2.0 0.00 0.00 0.00 54 1013.5
20260504221934 66 148 0.0 0.0 0.00 0.00 0.00 54 1013.7
20260504221431 66 140 1.0 1.0 0.00 0.00 0.00 55 1013.7
20260504220928 66 220 1.0 3.0 0.00 0.00 0.00 55 1014.0
20260504220425 66 161 1.0 1.0 0.00 0.00 0.00 55 1013.9
20260504215922 66 220 3.0 3.0 0.00 0.00 0.00 55 1013.9
20260504215419 67 215 4.0 4.0 0.00 0.00 0.00 53 1013.9
20260504214915 67 176 2.0 2.0 0.00 0.00 0.00 54 1013.7
20260504214412 67 234 1.0 2.0 0.00 0.00 0.00 54 1013.6
20260504213909 68 197 4.0 6.0 0.00 0.00 0.00 52 1014.0
20260504213404 68 160 1.0 3.0 0.00 0.00 0.00 52 1014.0
20260504212903 69 172 2.0 2.0 0.00 0.00 0.00 52 1013.8
20260504212357 69 181 2.0 2.0 0.00 0.00 0.00 50 1014.1
20260504211856 68 214 2.0 2.0 0.00 0.00 0.00 51 1014.0
20260504211352 69 159 1.0 2.0 0.00 0.00 0.00 50 1013.8
20260504210849 69 145 2.0 2.0 0.00 0.00 0.00 50 1014.0
20260504210345 69 163 0.0 1.0 0.00 0.00 0.00 51 1013.9
20260504205843 69 153 0.0 1.0 0.00 0.00 0.00 51 1013.8
20260504205341 69 176 2.0 2.0 0.00 0.00 0.00 50 1013.9
20260504204838 70 179 3.0 4.0 0.00 0.00 0.00 48 1013.7
20260504204337 70 197 1.0 1.0 0.00 0.00 0.00 48 1013.7
20260504203836 69 218 4.0 8.0 0.00 0.00 0.00 47 1013.8
20260504203332 70 183 3.0 4.0 0.00 0.00 0.00 48 1013.8
20260504202828 69 194 1.0 1.0 0.00 0.00 0.00 50 1013.8
20260504202326 70 168 0.0 1.0 0.00 0.00 0.00 49 1013.7
20260504201822 70 185 2.0 3.0 0.00 0.00 0.00 47 1014.0
20260504201319 70 351 4.0 6.0 0.00 0.00 0.00 46 1013.8
20260504200817 71 124 2.0 3.0 0.00 0.00 0.00 45 1013.7
20260504200313 72 162 4.0 4.0 0.00 0.00 0.00 43 1013.8
20260504195809 73 200 1.0 2.0 0.00 0.00 0.00 41 1013.9
20260504195305 73 162 1.0 1.0 0.00 0.00 0.00 38 1013.9
20260504194802 73 183 2.0 2.0 0.00 0.00 0.00 39 1013.8
20260504194258 73 86 3.0 6.0 0.00 0.00 0.00 39 1013.8
20260504193754 73 247 2.0 3.0 0.00 0.00 0.00 40 1013.9
20260504193252 73 265 3.0 4.0 0.00 0.00 0.00 37 1013.9
20260504192750 73 323 8.0 10.0 0.00 0.00 0.00 37 1014.0
20260504192248 73 147 0.0 1.0 0.00 0.00 0.00 39 1014.1
20260504191747 72 198 2.0 3.0 0.00 0.00 0.00 38 1014.2
20260504191243 72 231 3.0 4.0 0.00 0.00 0.00 38 1014.3
20260504190739 72 269 4.0 6.0 0.00 0.00 0.00 37 1014.2
20260504190236 74 172 3.0 3.0 0.00 0.00 0.00 36 1014.4
20260504185732 73 267 2.0 3.0 0.00 0.00 0.00 39 1014.2
20260504185229 72 224 4.0 6.0 0.00 0.00 0.00 37 1014.2
20260504184725 72 190 1.0 1.0 0.00 0.00 0.00 43 1014.4
20260504184221 72 225 2.0 4.0 0.00 0.00 0.00 36 1014.4
20260504183717 72 228 5.0 7.0 0.00 0.00 0.00 37 1014.4
20260504183214 72 222 3.0 3.0 0.00 0.00 0.00 37 1014.5
20260504182712 72 293 6.0 9.0 0.00 0.00 0.00 35 1014.6
20260504182209 71 165 2.0 3.0 0.00 0.00 0.00 38 1014.6
20260504181707 71 138 3.0 3.0 0.00 0.00 0.00 37 1014.5
20260504181204 71 189 2.0 2.0 0.00 0.00 0.00 38 1014.9
20260504180703 71 305 2.0 3.0 0.00 0.00 0.00 38 1015.0
20260504180201 71 200 5.0 7.0 0.00 0.00 0.00 38 1015.0
20260504175658 70 194 2.0 2.0 0.00 0.00 0.00 40 1015.0
20260504175155 71 284 2.0 3.0 0.00 0.00 0.00 41 1015.0
20260504174653 70 180 1.0 1.0 0.00 0.00 0.00 38 1015.2
20260504174149 70 262 5.0 8.0 0.00 0.00 0.00 40 1015.1
20260504173646 70 248 5.0 7.0 0.00 0.00 0.00 37 1015.2
20260504173144 71 201 2.0 2.0 0.00 0.00 0.00 37 1015.1
20260504172641 71 239 4.0 7.0 0.00 0.00 0.00 38 1015.2
20260504172137 69 166 5.0 7.0 0.00 0.00 0.00 38 1015.5
20260504171633 69 288 10.0 13.0 0.00 0.00 0.00 37 1015.5
20260504171130 70 180 2.0 3.0 0.00 0.00 0.00 39 1015.5